Powrót do katalogu

ARIANE 3 DEB

AktywnyGTO
NORAD 20229·DEBRIS·🇫🇷 France

Wystrzelony Jul 12, 1989 z Guiana Space Centre

Loading…

TLE

Starzejące sięSource: Space-Track

Epoka: Sep 14, 2026, 04:57 UTC

1 20229U 89053C   26257.20656937  .00000407  00000-0  17290-2 0  9992
2 20229   6.4571  52.6434 7176055 134.4874 313.5345  2.32537177301124

Śledź ARIANE 3 DEB w czasie rzeczywistym z AllMySat

Download on the App Store